Other Public Products
Issued by NWS Grand Forks, ND

Home | Current Version | Previous Version | Text Only | Print | Product List | Glossary Off
Versions: 1 2 3 4 5 6 7 8 9 10 11 12 13 14 15 16 17 18 19 20 21 22 23 24 25 26 27 28 29 30 31 32 33 34 35 36 37 38 39 40 41 42 43 44 45 46 47 48 49 50

000
FPUS83 KFGF 161631
OPUFGF
PRAIRIE TO PINES WEATHER ROUNDUP
NATIONAL WEATHER SERVICE EASTERN NORTH DAKOTA/GRAND FORKS ND
1000 AM CST TUE JAN 16 2018

 **SATELLITE DATA USED TO AUGMENT SKY COVER AT AUTOMATED STATIONS**
 *****  WEATHER ACROSS EASTERN NORTH DAKOTA  *****

CITY           SKY/WX    TMP DP  RH WIND       PRES   REMARKS
GRAND FORKS    FAIR     -11 -19  68 S10       30.69F WCI -30
GRND FORKS AFB FAIR      -9 -19  62 S9        30.67F WCI -26
GRND FORKS NWS   N/A    -11 N/A N/A S7          N/A  WCI -26
BUXTON           N/A    -11 -11  98 S8          N/A  WCI -28
DEVILS LAKE    FAIR      -9 -16  71 SW12      30.58F WCI -28
FARGO          FAIR      -9 -16  71 S7        30.73F WCI -24
WAHPETON ARPT  FAIR      -8 -17  65 NW5       30.76S WCI -19
$$

 *****  WEATHER ACROSS CENTRAL AND WESTERN NORTH DAKOTA  *****

CITY           SKY/WX    TMP DP  RH WIND       PRES   REMARKS
JAMESTOWN      FAIR      -9 -17  68 SW7       30.63F WCI -24
BISMARCK       FAIR     -16 -21  78 CALM      30.64F
MINOT          FAIR       1 -12  54 S14       30.46F WCI -17
MINOT AFB      FAIR       0 -12  55 S6        30.47F WCI -11
GARRISON         N/A     -9 -14  78 S6        30.52F WCI -22
WILLISTON      FAIR      -9 -14  78 S5        30.46F WCI -20
DICKINSON      FAIR      -3 -13  62 S13       30.42F WCI -22
HETTINGER      FAIR      -6 -11  79 S3        30.49F
$$

 *****  OTHER OBSERVATIONS NORTHEAST NORTH DAKOTA  *****

CITY           SKY/WX    TMP DP  RH WIND       PRES   REMARKS
WALHALLA       FAIR       1 -13  51 W6G15     30.58F WCI -10
LANGDON        FAIR      -6 -13  71 SW15      30.53S WCI -27
CAVALIER         N/A     -4 -13  65 S8        30.60F WCI -19
GRAFTON        FAIR      -8 -15  71 S13       30.67F WCI -28
CANDO          FAIR      -8 -13  77 SW9       30.57F WCI -25
FORT TOTTEN      N/A     -7 -17  62 S7        29.95  WCI -21
ROLLA          FAIR      -4 -15  59 SW23G31   30.45F WCI -29
RUGBY          FAIR      -8 -13  77 S10       30.54F WCI -26
 ***** THE ABOVE OBSERVATIONS ARE NON NWS ARE NOT QUALITY
        CONTROLLED AND MAY MIS-REPORT RAIN FOR SNOW...
$$

 *****  OTHER OBSERVATIONS SOUTHEAST NORTH DAKOTA *****

CITY           SKY/WX    TMP DP  RH WIND       PRES   REMARKS
COOPERSTOWN    FAIR     -11 -18  70 SW8       30.63F WCI -28
VALLEY CITY    FAIR      -8 -17  65 VRB3      30.67F
OAKES            N/A     -9 -17  70 SW8       30.71F WCI -26
GWINNER          N/A     -8 -15  71 W9        30.71F WCI -25
SHEYENNE NWR     N/A    -10 -20  62 W5        29.95S WCI -22
BUFFALO          N/A    -10 -17  70 SE6         N/A  WCI -24
WYNDMERE       NOT AVBL
 ***** THE ABOVE OBSERVATIONS ARE NON NWS ARE NOT QUALITY
       CONTROLLED AND MAY MIS-REPORT RAIN FOR SNOW...
$$

  *****  WEATHER ACROSS NORTHERN MINNESOTA  *****

CITY           SKY/WX    TMP DP  RH WIND       PRES   REMARKS
FLAG ISLAND    FAIR      -6 -15  65 S5        30.58F WCI -17
WARROAD        FAIR      -9 -17  70 SW5       30.61F WCI -21
ROSEAU         FAIR      -9 -17  70 SW8       30.62F WCI -26
HALLOCK        FAIR      -8 -15  71 S15       30.63F WCI -29
THF RVR FALLS  FAIR     -14 -20  74 SW8       30.67F WCI -31
HALSTAD        NOT AVBL
FOSSTON        FAIR     -15 -20  76 S8        30.66F WCI -32
BAUDETTE       FAIR     -15 -19  82 SW3       30.61S
WASKISH        FAIR     -11 -17  77 SW5       30.62F WCI -23
CROOKSTON      FAIR     -11 -17  77 S9        30.71F WCI -29
$$
  *****  WEATHER ACROSS CENTRAL AND WEST MINNESOTA  *****

CITY           SKY/WX    TMP DP  RH WIND       PRES   REMARKS
BEMIDJI        FAIR     -11 -15  80 W3        30.63S
PARK RAPIDS    FAIR     -14 -17  87 W3        30.63F
WADENA         FAIR     -11 -17  77 W5        30.66S WCI -23
DETROIT LAKES  FAIR     -11 -15  84 CALM      30.68S FOG
MOORHEAD       FAIR     -11 -18  70 CALM      30.74F
FERGUS FALLS   FAIR     -11 -18  70 NW6       30.77F WCI -25
ELBOW LAKE     FAIR     -11 -15  82 NW8       30.72S HAZE    WCI -28
MORRIS MN      FAIR      -8 -15  71 NW10      30.72S WCI -26
STAPLES        FAIR     -11 -17  77 NW5       30.65F WCI -23
WHEATON        FAIR      -8 -17  65 NW7       30.77R WCI -22
$$
  *****  WEATHER ELSEWHERE ACROSS MINNESOTA  *****

CITY           SKY/WX    TMP DP  RH WIND       PRES   REMARKS
DULUTH         FAIR      -1  -5  82 NW14      30.56S WCI -20
INTRNTL FALLS  FAIR      -9 -14  78 W5        30.62S WCI -20
ELY            FLURRIES  -2  -6  84 W5        30.57F WCI -12
CLOQUET        FAIR       0  -6  78 NW8       30.59S WCI -15
BRAINERD       FAIR      -5 -10  79 NW7       30.66R WCI -19
HIBBING        PTSUNNY   -5  -8  87 NW6       30.59F WCI -18
ALEXANDRIA     FAIR      -8 -12  83 NW8       30.66S WCI -24
SAINT CLOUD    FAIR      -5  -9  83 NW8       30.68S WCI -20
MINNEAPOLIS    FAIR       1  -5  75 NW9       30.70S WCI -14
$$

  *****  WEATHER ACROSS SOUTH DAKOTA  *****

CITY           SKY/WX    TMP DP  RH WIND       PRES   REMARKS
SIOUX FALLS    PTSUNNY   -5 -10  79 NW9       30.73R WCI -22
BROOKINGS      CLOUDY    -8 -13  78 MISG        N/A
WATERTOWN      FAIR      -9 -13  83 NW6       30.66F WCI -22
HURON          FAIR      -5 -14  65 NW6       30.77F WCI -18
SISSETON         N/A     -4 -13  65 NW9       30.72F WCI -20
ABERDEEN       FAIR      -7 -14  71 SW5       30.75S WCI -18
MITCHELL       FAIR      -5 -11  75 W6        30.80S WCI -18
PIERRE         FAIR      -6 -12  75 SW10      30.70F WCI -24
MOBRIDGE       FAIR      -8 -16  67 S5        30.63F WCI -19
RAPID CITY     FAIR      -5  -9  83 SE8       30.49F WCI -20
$$

  *****  SOME WEATHER IN NEARBY STATES *****

CITY           SKY/WX    TMP DP  RH WIND       PRES   REMARKS
GLASGOW MT     FAIR     N/A N/A N/A E17       30.31F
GREAT FALLS MT FAIR      29  15  56 SW22      30.09F WCI  15
CHEYENNE WY    FAIR      10  -2  58 SW5       30.37R WCI   2
SCOTTSBLUFF NE FAIR      -4  -9  79 CALM      30.53S
OMAHA NE       FLURRIES   1  -6  72 N15       30.78R WCI -18
DES MOINES IA  LGT SNOW   1  -6  72 NW15      30.71S WCI -18
DAVENPORT IA   FAIR      10   3  73 W15       30.60R WCI  -7
CHICAGO IL     FAIR      19  13  77 NW15      30.44R WCI   5
EAU CLAIRE WI  FAIR       7   2  80 NW6       30.61R WCI  -3
LA CROSSE WI   CLOUDY     8   1  73 NW12      30.64R WCI  -7
$$

  *****  SOME NATIONAL WEATHER *****

CITY           SKY/WX    TMP DP  RH WIND       PRES   REMARKS
LA GUARDIA NY  CLOUDY    30  24  78 NE6       30.50F WCI  24
RALEIGH NC     PTSUNNY   39  18  42 W5        30.48F
ATLANTA GA     PTSUNNY   41  27  57 W7        30.42S
NEW ORLEANS LA PTSUNNY   43  39  86 N14G22    30.49R
OKLAHOMA CITY  FAIR      10  -4  53 N18       30.83R WCI  -8
ALBUQUERQUE NM CLOUDY    26  14  60 E10       30.50R WCI  16
SALT LAKE CITY FAIR      38  23  55 SW3       30.33R
LOS ANGELES CA PTSUNNY   57  57 100 CALM      30.14S FOG
BOISE ID       FAIR      35  28  75 NE7       30.26R
SEATTLE WA     LGT RAIN  48  46  93 S8        30.12R
$$

*** WEATHER ACROSS MANITOBA...SASKATCHEWAN AND ONTARIO ***
                ***ONTARIO***

CITY           SKY/WX    TMP DP  RH WIND       PRES   REMARKS
GERALDTON      FLURRIES   0  -4  85 W7        30.46F WCI -13
THUNDER BAY    MOSUNNY    3  -2  78 SW9       30.59F WCI -11
SIOUX LOOKOUT  CLOUDY    -8 -13  77 SW7       30.50F WCI -22
TORONTO        MOSUNNY   21  16  79 SW6       30.37S WCI  14
BIG TROUT LK   CLOUDY     0  -6  78 SW15      30.14F WCI -20
PICKLE LAKE    CLOUDY    -6 -13  71 SW13      30.36F WCI -25
DRYDEN         CLOUDY    -8 -11  84 W12       30.50F WCI -27
KENORA         CLOUDY    -9 -15  77 SW12      30.52F WCI -29
$$
                *** MANITOBA***

CITY           SKY/WX    TMP DP  RH WIND       PRES   REMARKS
BRANDON        MOCLDY    -2 -11  65 SW13      30.47F WCI -21
DAUPHIN        CLEAR    N/A N/A N/A SW21G28     N/A
ISLAND LAKE    MOCLDY     3  -6  66 SW14G26   30.16F WCI -15
PILOT MOUND      N/A     -6 -15  65 S14         N/A  WCI -26
THE PAS        PTCLDY     1  -9  60 S5        30.17F WCI  -8
THOMPSON       PTCLDY     5  -4  66 SW13      29.99F WCI -12
WINNIPEG       PTSUNNY   -4 -13  65 S18       30.54F WCI -26
LYNN LAKE      CLEAR      9   1  72 W10       29.89F WCI  -6
CHURCHILL      FLURRIES  12   5  73 SW12G18   29.74F WCI  -2
GILLAM         PTCLDY     5  -4  66 SW13G21   29.92F WCI -12
$$
                ***SASKATCHEWAN***

CITY           SKY/WX    TMP DP  RH WIND       PRES   REMARKS
ESTEVAN        PTCLDY     1  -9  60 SW12G18   30.38F WCI -15
KINDERSLEY     PTCLDY     1  -8  66 SW9       30.05F WCI -14
LLOYDMINSTER   PTCLDY     3  -6  66 S10       29.98F WCI -12
PRINCE ALBERT  PTCLDY   -15 -20  76 E5        30.20F WCI -27
REGINA         PTCLDY     0  -9  65 SE18      30.29F WCI -22
YORKTON        CLEAR      3  -6  66 S12G17    30.29F W



USA.gov is the U.S. government's official web portal to all federal, state and local government web resources and services.